"Pseudo-MPEC" for P11Juru

Created 2023 Sep 27 2:22:12 UT using Find_Orb

Click here for an explanation of pseudo-MPECs

 
 Astrometry: 
     P11Juru* C2023 09 14)H5c/v!od6a1RyMbk#%A]k3VD-:RfQAstrometry54@SxpTm5EsvF51
     P11Juru  C2023 09 140v7BA:redacted;Gbw8PS67GCclick#RXkL1CB@6W?d.OD^ff%ZgF51
     P11Juru  C2023 09 14AWYqdo.ehere8eqforK1C6T?VEQucexplanation_J-CjMJnC[MoF51

Station data:
(F51) Pan-STARRS 1, Haleakala  (N20.707234 W156.255910)  US/Hawaii.
   Observers J. Bulger, T. Lowe, A. Schultz, M. Willman. Measurers K.
   Chambers, S. Chastel, T. de Boer, L. Denneau, J. Fairlamb, H. Flewelling,
   M. Huber, C.-C. Lin, E. Magnier, Y. Ramanjooloo, R. Wainscoat, R. Weryk.
   1.8-m Ritchey-Chrétien + CCD.

Orbital elements:  P11Juru
   Perihelion 2023 Dec 7.33465 +/- 67.8 TT =  8:01:54 (JD 2460285.83465)
Epoch 2023 Sep 14.0 TT = JDT 2460201.5   Earth MOID: 0.3217   Ma: 0.0057
M 324.43482965 +/- 27               (J2000 ecliptic)             AutoNEOCP
n   0.42171478 +/- 0.294            Peri.   55.96034 +/- 70
a   1.76112493 +/- 0.82             Node   356.85835 +/- 41
e   0.3008148 +/- 0.273             Incl.   21.35458 +/- 16
P   2.34/853.64d           H 21.82  G  0.15   U 11.9  SR
q 1.23135234 +/- 0.411    Q 2.29089753 +/- 36.6
From 3 observations 2023 Sept. 14 (33.7 min); mean residual 0".02
Residuals in arcseconds: 
230914 F51  .01-  .02-    230914 F51  .02+  .04+    230914 F51  .01-  .02-    

Ephemerides (geocentric):
Date (UTC) HH   RA             Dec           delta  r     elong  mag " sig PA
---- --------  ------------   ------------  ------ ------ -----  --- --------
2023 09 27 02  22 58 10.513   -04 39 42.47  .37742 1.3641 160.5 21.2  42d  81
2023 09 27 03  22 58 03.617   -04 38 02.04  .37739 1.3640 160.4 21.2  42d  81
2023 09 27 04  22 57 56.724   -04 36 21.58  .37735 1.3638 160.4 21.2  43d  81
2023 09 27 05  22 57 49.834   -04 34 41.07  .37732 1.3637 160.3 21.2  43d  81
2023 09 27 06  22 57 42.947   -04 33 00.53  .37729 1.3635 160.3 21.2  43d  81
2023 09 27 07  22 57 36.063   -04 31 19.96  .37726 1.3634 160.2 21.2  43d  81
2023 09 27 08  22 57 29.182   -04 29 39.34  .37723 1.3633 160.1 21.2  43d  81
2023 09 27 09  22 57 22.304   -04 27 58.69  .37721 1.3631 160.1 21.2  43d  81
2023 09 27 10  22 57 15.430   -04 26 18.00  .37718 1.3630 160.0 21.2  43d  81
2023 09 27 11  22 57 08.558   -04 24 37.28  .37715 1.3629 160.0 21.2  43d  81
2023 09 27 12  22 57 01.690   -04 22 56.52  .37712 1.3627 159.9 21.2  43d  81
2023 09 27 13  22 56 54.825   -04 21 15.73  .37709 1.3626 159.8 21.2  43d  81
2023 09 27 14  22 56 47.963   -04 19 34.90  .37707 1.3624 159.8 21.2  43d  81
2023 09 27 15  22 56 41.105   -04 17 54.03  .37704 1.3623 159.7 21.2  43d  81
2023 09 27 16  22 56 34.250   -04 16 13.13  .37701 1.3622 159.7 21.2  43d  81
2023 09 27 17  22 56 27.398   -04 14 32.20  .37699 1.3620 159.6 21.2  43d  81
2023 09 27 18  22 56 20.549   -04 12 51.23  .37696 1.3619 159.5 21.2  43d  81
2023 09 27 19  22 56 13.704   -04 11 10.23  .37694 1.3617 159.5 21.2  43d  81
2023 09 27 20  22 56 06.863   -04 09 29.19  .37691 1.3616 159.4 21.2  43d  81
2023 09 27 21  22 56 00.024   -04 07 48.12  .37689 1.3615 159.4 21.2  43d  81
2023 09 27 22  22 55 53.189   -04 06 07.02  .37686 1.3613 159.3 21.2  43d  81
2023 09 27 23  22 55 46.358   -04 04 25.88  .37684 1.3612 159.2 21.2  43d  81
2023 09 28 00  22 55 39.530   -04 02 44.72  .37682 1.3611 159.2 21.2  43d  81
2023 09 28 01  22 55 32.705   -04 01 03.52  .37679 1.3609 159.1 21.2  43d  81
2023 09 28 02  22 55 25.884   -03 59 22.29  .37677 1.3608 159.1 21.2  43d  81
2023 09 28 03  22 55 19.066   -03 57 41.02  .37675 1.3606 159.0 21.2  43d  81
2023 09 28 04  22 55 12.252   -03 55 59.73  .37673 1.3605 158.9 21.2  43d  81
2023 09 28 05  22 55 05.442   -03 54 18.40  .37671 1.3604 158.9 21.2  43d  81
2023 09 28 06  22 54 58.635   -03 52 37.05  .37669 1.3602 158.8 21.2  43d  81
2023 09 28 07  22 54 51.832   -03 50 55.66  .37667 1.3601 158.8 21.2  43d  81
2023 09 28 08  22 54 45.032   -03 49 14.24  .37665 1.3600 158.7 21.2  43d  81
2023 09 28 09  22 54 38.236   -03 47 32.80  .37663 1.3598 158.6 21.2  43d  81
2023 09 28 10  22 54 31.444   -03 45 51.32  .37661 1.3597 158.6 21.2  43d  81
2023 09 28 11  22 54 24.655   -03 44 09.81  .37659 1.3595 158.5 21.2  43d  81
2023 09 28 12  22 54 17.870   -03 42 28.28  .37657 1.3594 158.5 21.2  43d  81
2023 09 28 13  22 54 11.089   -03 40 46.71  .37655 1.3593 158.4 21.2  43d  81
2023 09 28 14  22 54 04.312   -03 39 05.12  .37653 1.3591 158.3 21.2  43d  81
2023 09 28 15  22 53 57.538   -03 37 23.50  .37652 1.3590 158.3 21.2  43d  81
2023 09 28 16  22 53 50.768   -03 35 41.85  .37650 1.3589 158.2 21.2  43d  81
2023 09 28 17  22 53 44.002   -03 34 00.17  .37648 1.3587 158.1 21.2  43d  81
2023 09 28 18  22 53 37.240   -03 32 18.47  .37647 1.3586 158.1 21.2  43d  81
2023 09 28 19  22 53 30.482   -03 30 36.74  .37645 1.3584 158.0 21.2  44d  81
2023 09 28 20  22 53 23.727   -03 28 54.98  .37644 1.3583 158.0 21.2  44d  81
2023 09 28 21  22 53 16.977   -03 27 13.19  .37642 1.3582 157.9 21.2  44d  81
2023 09 28 22  22 53 10.230   -03 25 31.38  .37641 1.3580 157.8 21.2  44d  81
2023 09 28 23  22 53 03.488   -03 23 49.54  .37639 1.3579 157.8 21.2  44d  81
2023 09 29 00  22 52 56.749   -03 22 07.68  .37638 1.3578 157.7 21.2  44d  81
2023 09 29 01  22 52 50.014   -03 20 25.79  .37636 1.3576 157.7 21.2  44d  81